Content
SEND FEEDBACK

Daily
Averages
Monthly
Summary
Canada

MONTREAL, QUEBEC


Home > North America > Canada > Quebec
Elevation: 35 meters     Latitude: 45 28N     Longitude: 073 45W

WEATHER
 
SELECT A DAY
Number of Records: 195,809;   Date Range: 1/1/95 - 4/21/14
 
SHARE

PRINT THIS DATA

[ ← Previous Day ]
WEATHER ALMANAC - 13 FEBRUARY, 2013
[ Next Day → ]
[ °F ]   °C
Weather ElementAverageHighLow
Temperature-0.7 °C0 °C (12:00 pm)-2 °C (7:00 am)
Dewpoint-5.8 °C-3 °C (1:00 am) (7:00 pm)
Humidity75.3 %86 % (1:00 am)60 % (1:00 pm)
Barometer904.8 hPa1010.5 hPa (8:00 am) (7:00 pm)
Wind Speed10.5 km/h18.5 km/h (1:00 am)
Weather ElementAverage
Visibility22.7 km
Wind DirectionWSW (234.1 °)

Weather ElementTotal
Precipitation---
Heating Degree Days19.3 (Base 18.3)
Averaged from 29 records on 13 February, 2013
WEATHER CONDITIONS BREAKOUT
WIND DIRECTION BREAKOUT
WEATHER BY HOUR - 13 FEBRUARY, 2013
[ °F ]   °C
Local TimeTemperatureDewpointHumidityBarometerVisibilityWind DirectionWind SpeedGust SpeedPrecipitationEventsConditions
12:47 AM-1 °C-17.8 °C16.1 kmWSW (250°)16.7 km/hSnowLight Snow Showers
1:00 AM-1 °C-3 °C86 %1009.8 hPa24.1 kmWest (260°)18.5 km/hSnowLight Snow
2:00 AM-1 °C-4 °C80 %1009.8 hPa24.1 kmWest (260°)13 km/hSnowLight Snow
3:00 AM-1 °C-4 °C80 %1009.8 hPa24.1 kmWSW (250°)14.8 km/hSnowLight Snow
4:00 AM-1 °C-4 °C80 %1010.2 hPa24.1 kmWest (260°)14.8 km/hSnowLight Snow
5:00 AM-1 °C-4 °C80 %1010.2 hPa16.1 kmWest (270°)9.3 km/hSnowLight Snow
6:00 AM-1 °C-4 °C80 %1010.2 hPa16.1 kmWest (260°)13 km/hSnowLight Snow
7:00 AM-2 °C-5 °C80 %1010.2 hPa24.1 kmWest (260°)9.3 km/hSnowLight Snow
7:00 AM-1.7 °C-5 °C71 %1010.2 hPa24.1 kmWest (260°)9.3 km/hSnowLight Snow
8:00 AM-2 °C-5 °C80 %1010.5 hPa19.3 kmWSW (250°)11.1 km/hSnowLight Snow
9:00 AM-2 °C-5 °C80 %1010.5 hPa12.9 kmWest (260°)11.1 km/hSnowLight Snow
10:00 AM-1 °C-5 °C75 %1010.5 hPa24.1 kmWSW (250°)14.8 km/hSnowLight Snow
11:00 AM-1 °C-5 °C75 %1010.5 hPa24.1 kmWest (260°)9.3 km/hSnowLight Snow
12:00 PM0 °C-4 °C75 %1009.5 hPa24.1 kmWest (260°)11.1 km/hMostly Cloudy
1:00 PM0 °C-5 °C69 %1009.1 hPa24.1 kmSSW (210°)11.1 km/hMostly Cloudy
1:00 PM0 °C-5 °C60 %1009.1 hPa24.1 kmSSW (210°)11.1 km/hPartly Cloudy
2:00 PM0 °C-4 °C75 %1008.8 hPa24.1 kmSSW (210°)16.7 km/hOvercast
3:00 PM0 °C-5 °C69 %1008.5 hPa24.1 kmSSW (210°)16.7 km/hMostly Cloudy
4:00 PM0 °C-5 °C69 %1008.5 hPa24.1 kmSW (220°)11.1 km/hMostly Cloudy
5:00 PM0 °C-4 °C75 %1008.5 hPa24.1 kmWNW (290°)5.6 km/hOvercast
5:42 PM0 °C-17.8 °C24.1 kmWNW (290°)7.4 km/hSnowLight Snow Showers
6:00 PM0 °C-5 °C69 %1008.5 hPa24.1 kmWest (260°)5.6 km/hSnowLight Snow Showers
7:00 PM0 °C-5 °C69 %1008.5 hPa24.1 kmSSW (210°)3.7 km/hSnowLight Snow Showers
7:00 PM0 °C-5 °C60 %1008.5 hPa24.1 kmSSW (210°)5.6 km/hSnowLight Snow Showers
8:00 PM0 °C-4 °C75 %1008.5 hPa24.1 kmSSE (160°)9.3 km/hSnowLight Snow
8:53 PM-1 °C-17.8 °C24.1 kmSSE (150°)7.4 km/hMostly Cloudy
9:00 PM-1 °C-4 °C80 %1008.5 hPa24.1 kmSSE (160°)5.6 km/hMostly Cloudy
10:00 PM-1 °C-4 °C80 %1008.5 hPa24.1 kmSouth (170°)7.4 km/hMostly Cloudy
11:00 PM-1 °C-3 °C86 %1008.5 hPa24.1 kmSW (220°)3.7 km/hOvercast
Hourly data recorded from CYUL, located 1 kilometers away from Montreal, Quebec







STORIES FROM OUR PARTNERS